Time,TemperatureF,DewpointF,PressureIn,WindDirection,WindDirectionDegrees,WindSpeedMPH,WindSpeedGustMPH,Humidity,HourlyPrecipIn,Conditions,Clouds,dailyrainin,SoftwareType,DateUTC
2013-01-03 00:04:00,28.7,25.0,30.22,NNE,27,1.0,1.0,85,0.00,,,0.00,weatherlink.com 1.10,2013-01-03 05:04:00,
2013-01-03 00:18:00,28.7,25.0,30.21,NNE,27,0.0,1.0,86,0.00,,,0.00,weatherlink.com 1.10,2013-01-03 05:18:00,
2013-01-03 00:33:00,28.7,24.0,30.21,NNE,27,0.0,1.0,83,0.00,,,0.00,weatherlink.com 1.10,2013-01-03 05:33:00,
2013-01-03 00:48:00,29.0,23.0,30.21,NNE,27,1.0,2.0,78,0.00,,,0.00,weatherlink.com 1.10,2013-01-03 05:48:00,
2013-01-03 01:03:00,29.3,24.0,30.20,NNE,27,0.0,1.0,79,0.00,,,0.00,weatherlink.com 1.10,2013-01-03 06:03:00,
2013-01-03 01:18:00,29.2,23.0,30.20,NNE,27,1.0,1.0,78,0.00,,,0.00,weatherlink.com 1.10,2013-01-03 06:18:00,
2013-01-03 01:33:00,29.5,22.0,30.21,NNE,27,0.0,2.0,74,0.00,,,0.00,weatherlink.com 1.10,2013-01-03 06:33:00,
2013-01-03 01:48:00,29.4,22.0,30.21,NNE,27,0.0,0.0,73,0.00,,,0.00,weatherlink.com 1.10,2013-01-03 06:48:00,
2013-01-03 02:03:00,29.4,21.0,30.22,NNE,27,0.0,0.0,71,0.00,,,0.00,weatherlink.com 1.10,2013-01-03 07:03:00,
2013-01-03 02:18:00,29.7,21.0,30.22,NNE,27,0.0,0.0,69,0.00,,,0.00,weatherlink.com 1.10,2013-01-03 07:18:00,
2013-01-03 02:33:00,29.7,21.0,30.23,NNE,27,0.0,0.0,69,0.00,,,0.00,weatherlink.com 1.10,2013-01-03 07:33:00,
2013-01-03 02:48:00,29.7,21.0,30.22,NNE,27,0.0,0.0,71,0.00,,,0.00,weatherlink.com 1.10,2013-01-03 07:48:00,
2013-01-03 03:03:00,29.7,21.0,30.22,NNE,27,0.0,0.0,69,0.00,,,0.00,weatherlink.com 1.10,2013-01-03 08:03:00,
2013-01-03 03:18:00,29.5,24.0,30.22,NNE,27,0.0,0.0,81,0.00,,,0.00,weatherlink.com 1.10,2013-01-03 08:18:00,
2013-01-03 03:33:00,29.2,22.0,30.21,NNE,27,0.0,0.0,75,0.00,,,0.00,weatherlink.com 1.10,2013-01-03 08:33:00,
2013-01-03 03:48:00,29.1,21.0,30.21,NNE,27,0.0,1.0,73,0.00,,,0.00,weatherlink.com 1.10,2013-01-03 08:48:00,
2013-01-03 04:03:00,28.9,22.0,30.21,NNE,27,0.0,0.0,75,0.00,,,0.00,weatherlink.com 1.10,2013-01-03 09:03:00,
2013-01-03 04:18:00,28.7,23.0,30.21,NNE,27,1.0,2.0,79,0.00,,,0.00,weatherlink.com 1.10,2013-01-03 09:18:00,
2013-01-03 04:33:00,28.7,22.0,30.21,NNE,27,0.0,1.0,76,0.00,,,0.00,weatherlink.com 1.10,2013-01-03 09:33:00,
2013-01-03 04:48:00,28.8,20.0,30.21,NNE,27,0.0,1.0,71,0.00,,,0.00,weatherlink.com 1.10,2013-01-03 09:48:00,
2013-01-03 05:03:00,28.9,20.0,30.21,NNE,27,0.0,0.0,70,0.00,,,0.00,weatherlink.com 1.10,2013-01-03 10:03:00,
2013-01-03 05:18:00,28.9,19.0,30.21,NNE,27,0.0,0.0,67,0.00,,,0.00,weatherlink.com 1.10,2013-01-03 10:18:00,
2013-01-03 05:33:00,28.7,20.0,30.21,NNE,27,0.0,0.0,71,0.00,,,0.00,weatherlink.com 1.10,2013-01-03 10:33:00,
2013-01-03 05:48:00,28.5,21.0,30.21,NNE,27,0.0,0.0,73,0.00,,,0.00,weatherlink.com 1.10,2013-01-03 10:48:00,
2013-01-03 06:04:00,27.9,23.0,30.22,NNE,27,0.0,1.0,80,0.00,,,0.00,weatherlink.com 1.10,2013-01-03 11:04:00,
2013-01-03 06:19:00,27.7,21.0,30.22,NNE,27,0.0,1.0,76,0.00,,,0.00,weatherlink.com 1.10,2013-01-03 11:19:00,
2013-01-03 06:34:00,27.7,22.0,30.23,NNE,27,0.0,2.0,79,0.00,,,0.00,weatherlink.com 1.10,2013-01-03 11:34:00,
2013-01-03 06:49:00,27.3,21.0,30.24,NNE,27,0.0,1.0,76,0.00,,,0.00,weatherlink.com 1.10,2013-01-03 11:49:00,
2013-01-03 07:04:00,27.1,21.0,30.24,NNE,27,0.0,0.0,77,0.00,,,0.00,weatherlink.com 1.10,2013-01-03 12:04:00,
2013-01-03 07:19:00,26.6,21.0,30.24,NNE,27,0.0,0.0,80,0.00,,,0.00,weatherlink.com 1.10,2013-01-03 12:19:00,
2013-01-03 07:34:00,26.0,21.0,30.24,NNE,27,0.0,1.0,81,0.00,,,0.00,weatherlink.com 1.10,2013-01-03 12:34:00,
2013-01-03 07:49:00,25.8,20.0,30.24,NNE,27,0.0,0.0,80,0.00,,,0.00,weatherlink.com 1.10,2013-01-03 12:49:00,
2013-01-03 08:04:00,26.0,19.0,30.24,NNE,27,0.0,0.0,76,0.00,,,0.00,weatherlink.com 1.10,2013-01-03 13:04:00,
2013-01-03 08:19:00,26.4,20.0,30.25,NNE,27,0.0,1.0,76,0.00,,,0.00,weatherlink.com 1.10,2013-01-03 13:19:00,
2013-01-03 08:34:00,27.8,19.0,30.25,NNW,346,2.0,2.0,70,0.00,,,0.00,weatherlink.com 1.10,2013-01-03 13:34:00,
2013-01-03 08:49:00,28.3,20.0,30.25,NNW,345,1.0,2.0,72,0.00,,,0.00,weatherlink.com 1.10,2013-01-03 13:49:00,
2013-01-03 09:04:00,28.7,21.0,30.24,WNW,288,3.0,3.0,72,0.00,,,0.00,weatherlink.com 1.10,2013-01-03 14:04:00,
2013-01-03 09:19:00,29.8,20.0,30.24,WSW,254,2.0,4.0,67,0.00,,,0.00,weatherlink.com 1.10,2013-01-03 14:19:00,
2013-01-03 09:34:00,30.6,20.0,30.25,West,260,1.0,4.0,66,0.00,,,0.00,weatherlink.com 1.10,2013-01-03 14:34:00,
2013-01-03 09:49:00,31.4,20.0,30.25,South,187,3.0,4.0,62,0.00,,,0.00,weatherlink.com 1.10,2013-01-03 14:49:00,
2013-01-03 10:04:00,32.2,21.0,30.24,SE,130,5.0,6.0,64,0.00,,,0.00,weatherlink.com 1.10,2013-01-03 15:04:00,
2013-01-03 10:19:00,32.1,21.0,30.25,South,172,3.0,7.0,64,0.00,,,0.00,weatherlink.com 1.10,2013-01-03 15:19:00,
2013-01-03 10:34:00,32.5,21.0,30.25,SSE,163,2.0,7.0,63,0.00,,,0.00,weatherlink.com 1.10,2013-01-03 15:34:00,
2013-01-03 10:49:00,32.9,21.0,30.24,West,261,3.0,5.0,61,0.00,,,0.00,weatherlink.com 1.10,2013-01-03 15:49:00,
2013-01-03 11:04:00,33.4,21.0,30.24,West,273,2.0,7.0,60,0.00,,,0.00,weatherlink.com 1.10,2013-01-03 16:04:00,
2013-01-03 11:19:00,33.6,23.0,30.23,West,265,0.0,7.0,64,0.00,,,0.00,weatherlink.com 1.10,2013-01-03 16:19:00,
2013-01-03 11:34:00,34.4,22.0,30.22,West,266,5.0,8.0,60,0.00,,,0.00,weatherlink.com 1.10,2013-01-03 16:34:00,
2013-01-03 11:49:00,34.9,22.0,30.21,South,188,2.0,10.0,60,0.00,,,0.00,weatherlink.com 1.10,2013-01-03 16:49:00,
2013-01-03 12:04:00,35.0,22.0,30.20,WSW,257,3.0,6.0,59,0.00,,,0.00,weatherlink.com 1.10,2013-01-03 17:04:00,
2013-01-03 12:19:00,35.0,22.0,30.19,WSW,246,4.0,8.0,59,0.00,,,0.00,weatherlink.com 1.10,2013-01-03 17:19:00,
2013-01-03 12:34:00,35.9,23.0,30.19,South,171,5.0,9.0,60,0.00,,,0.00,weatherlink.com 1.10,2013-01-03 17:34:00,
2013-01-03 12:50:00,37.0,24.0,30.18,SSE,152,7.0,9.0,59,0.00,,,0.00,weatherlink.com 1.10,2013-01-03 17:50:00,
2013-01-03 13:05:00,37.4,23.0,30.16,SSW,193,4.0,5.0,57,0.00,,,0.00,weatherlink.com 1.10,2013-01-03 18:05:00,
2013-01-03 13:20:00,37.4,22.0,30.16,SSE,154,7.0,7.0,55,0.00,,,0.00,weatherlink.com 1.10,2013-01-03 18:20:00,
2013-01-03 13:35:00,37.6,23.0,30.16,SSW,192,3.0,7.0,57,0.00,,,0.00,weatherlink.com 1.10,2013-01-03 18:35:00,
2013-01-03 13:50:00,37.5,23.0,30.15,West,277,5.0,9.0,55,0.00,,,0.00,weatherlink.com 1.10,2013-01-03 18:50:00,
2013-01-03 14:05:00,37.6,22.0,30.16,WSW,257,3.0,8.0,53,0.00,,,0.00,weatherlink.com 1.10,2013-01-03 19:05:00,
2013-01-03 15:05:00,39.5,23.0,30.15,SSE,158,5.0,8.0,51,0.00,,,0.00,weatherlink.com 1.10,2013-01-03 20:05:00,
2013-01-03 15:20:00,39.2,23.0,30.16,South,182,6.0,9.0,52,0.00,,,0.00,weatherlink.com 1.10,2013-01-03 20:20:00,
2013-01-03 15:35:00,39.0,23.0,30.16,SSW,197,0.0,6.0,52,0.00,,,0.00,weatherlink.com 1.10,2013-01-03 20:35:00,
2013-01-03 15:50:00,38.9,22.0,30.16,WSW,254,1.0,5.0,51,0.00,,,0.00,weatherlink.com 1.10,2013-01-03 20:50:00,
2013-01-03 16:05:00,39.1,23.0,30.17,South,188,2.0,5.0,52,0.00,,,0.00,weatherlink.com 1.10,2013-01-03 21:05:00,
2013-01-03 16:20:00,38.6,24.0,30.17,South,180,1.0,6.0,55,0.00,,,0.00,weatherlink.com 1.10,2013-01-03 21:20:00,
2013-01-03 16:35:00,37.9,23.0,30.18,SSW,192,1.0,5.0,55,0.00,,,0.00,weatherlink.com 1.10,2013-01-03 21:35:00,
2013-01-03 16:50:00,37.0,22.0,30.18,SW,218,0.0,3.0,56,0.00,,,0.00,weatherlink.com 1.10,2013-01-03 21:50:00,
2013-01-03 17:05:00,36.2,22.0,30.18,SSW,204,1.0,4.0,57,0.00,,,0.00,weatherlink.com 1.10,2013-01-03 22:05:00,
2013-01-03 17:20:00,35.6,22.0,30.18,SSW,204,0.0,2.0,58,0.00,,,0.00,weatherlink.com 1.10,2013-01-03 22:20:00,
2013-01-03 17:35:00,34.6,21.0,30.18,SSW,204,0.0,1.0,59,0.00,,,0.00,weatherlink.com 1.10,2013-01-03 22:35:00,
2013-01-03 17:50:00,34.7,22.0,30.19,SSW,204,0.0,2.0,60,0.00,,,0.00,weatherlink.com 1.10,2013-01-03 22:50:00,
2013-01-03 18:05:00,35.4,21.0,30.19,SSW,204,1.0,2.0,57,0.00,,,0.00,weatherlink.com 1.10,2013-01-03 23:05:00,
2013-01-03 18:20:00,35.6,22.0,30.19,SSW,204,0.0,2.0,57,0.00,,,0.00,weatherlink.com 1.10,2013-01-03 23:20:00,
2013-01-03 18:35:00,34.5,22.0,30.19,SSW,204,2.0,2.0,60,0.00,,,0.00,weatherlink.com 1.10,2013-01-03 23:35:00,
2013-01-03 18:50:00,31.6,21.0,30.19,SSW,204,0.0,2.0,66,0.00,,,0.00,weatherlink.com 1.10,2013-01-03 23:50:00,
2013-01-03 19:05:00,30.6,21.0,30.19,SSW,204,0.0,1.0,68,0.00,,,0.00,weatherlink.com 1.10,2013-01-04 00:05:00,
2013-01-03 19:20:00,30.9,21.0,30.19,SSW,204,0.0,1.0,68,0.00,,,0.00,weatherlink.com 1.10,2013-01-04 00:20:00,
2013-01-03 19:35:00,29.5,22.0,30.20,SSW,204,2.0,2.0,72,0.00,,,0.00,weatherlink.com 1.10,2013-01-04 00:35:00,
2013-01-03 19:50:00,29.1,21.0,30.19,SSW,204,0.0,2.0,72,0.00,,,0.00,weatherlink.com 1.10,2013-01-04 00:50:00,
2013-01-03 20:05:00,30.8,21.0,30.19,SSW,204,0.0,3.0,68,0.00,,,0.00,weatherlink.com 1.10,2013-01-04 01:05:00,
2013-01-03 20:20:00,30.6,22.0,30.19,SSW,206,2.0,3.0,69,0.00,,,0.00,weatherlink.com 1.10,2013-01-04 01:20:00,
2013-01-03 20:35:00,31.9,22.0,30.19,SSW,206,0.0,1.0,68,0.00,,,0.00,weatherlink.com 1.10,2013-01-04 01:35:00,
2013-01-03 20:50:00,30.7,22.0,30.18,WSW,248,2.0,2.0,69,0.00,,,0.00,weatherlink.com 1.10,2013-01-04 01:50:00,
2013-01-03 21:05:00,31.2,22.0,30.19,WSW,258,2.0,3.0,70,0.00,,,0.00,weatherlink.com 1.10,2013-01-04 02:05:00,
2013-01-03 21:20:00,32.3,23.0,30.19,WSW,253,3.0,4.0,68,0.00,,,0.00,weatherlink.com 1.10,2013-01-04 02:20:00,
2013-01-03 21:35:00,33.0,23.0,30.20,WSW,256,4.0,4.0,67,0.00,,,0.00,weatherlink.com 1.10,2013-01-04 02:35:00,
2013-01-03 21:50:00,27.7,19.0,30.20,ENE,65,3.0,5.0,71,0.00,,,0.00,weatherlink.com 1.10,2013-01-04 02:50:00,
2013-01-03 22:05:00,26.7,21.0,30.20,ESE,105,0.0,4.0,79,0.00,,,0.00,weatherlink.com 1.10,2013-01-04 03:05:00,
2013-01-03 22:20:00,29.1,22.0,30.20,South,188,2.0,4.0,76,0.00,,,0.00,weatherlink.com 1.10,2013-01-04 03:20:00,
2013-01-03 22:35:00,31.0,23.0,30.20,WSW,253,2.0,6.0,71,0.00,,,0.00,weatherlink.com 1.10,2013-01-04 03:35:00,
2013-01-03 22:50:00,31.8,22.0,30.20,WSW,246,4.0,7.0,68,0.00,,,0.00,weatherlink.com 1.10,2013-01-04 03:50:00,
2013-01-03 23:05:00,28.2,21.0,30.20,SE,125,1.0,4.0,73,0.00,,,0.00,weatherlink.com 1.10,2013-01-04 04:05:00,
2013-01-03 23:20:00,27.7,21.0,30.20,SE,146,2.0,5.0,75,0.00,,,0.00,weatherlink.com 1.10,2013-01-04 04:20:00,
2013-01-03 23:35:00,29.6,22.0,30.20,WSW,257,4.0,4.0,72,0.00,,,0.00,weatherlink.com 1.10,2013-01-04 04:35:00,
2013-01-03 23:50:00,29.9,21.0,30.20,WSW,257,4.0,6.0,70,0.00,,,0.00,weatherlink.com 1.10,2013-01-04 04:50:00,